#timestamp,LO_Frequency,Hit,StdDev 
1529474415.8,286046998.3,N
1529474435.6,286046998.2,N
1529474455.5,286046998.4,N
1529474475.3,286046998.7,N
1529474495.1,286046998.2,N
1529474515.9,286046998.9,N
1529474535.7,286046998.1,N
1529474555.5,286047000.8,N
1529474575.4,286046999.4,N
1529474595.2,286046998.5,N
1529474615.1,286047001.0,N
1529474616.0,286047001.0,N
1529474635.8,286046998.9,N
1529474655.6,286047001.2,N
1529474675.5,286046999.0,N
1529474695.3,286046998.8,N
1529474715.2,286046998.4,N
1529474735.9,286046998.5,N
1529474755.7,286046998.5,N
1529474775.6,286046998.7,N
1529474795.4,286046998.6,N
1529474815.2,286046998.2,N
1529474835.1,286047001.2,N
1529474836.0,286047001.2,N
1529474855.8,286047001.2,N
1529474875.7,286047000.9,N
1529474895.5,286047000.0,N
1529474915.3,286046998.5,N
1529474935.2,286046998.3,N
1529474955.0,286046998.9,N
1529474955.9,286046998.9,N
1529474975.8,286046998.7,N
1529474995.6,286046999.0,N
1529475015.4,286046998.5,N
1529475035.3,286046998.7,N
1529475055.1,286047001.2,N
1529475075.8,286046998.5,N
1529475095.7,286046998.1,N
1529475115.5,286047001.2,N
1529475135.4,286047002.5,N
1529475155.2,286047000.1,N
1529475175.0,286047001.0,N
1529475175.9,286047001.0,N
1529475195.8,286047000.1,N
1529475215.6,286046999.9,N
1529475235.4,286046999.7,N
1529475255.3,286046998.4,N
1529475275.1,286047001.2,N
1529475295.9,286047000.1,N
1529475315.7,286047000.0,N
1529475335.5,286047001.0,N
1529475355.4,286047000.5,N
1529475375.2,286047000.5,N
1529475395.1,286047000.8,N
1529475396.0,286047000.8,N
1529475415.8,286047002.0,N
1529475435.6,286047004.4,Y
1529475455.5,286047002.8,P
1529475475.3,286047000.7,N
1529475495.1,286047000.7,N
1529475515.9,286047002.6,N
1529475535.7,286047000.1,N
1529475555.6,286047002.1,N
1529475575.4,286047002.2,N
1529475595.2,286047000.2,N
1529475615.1,286047000.1,N
1529475616.0,286047000.1,N
1529475635.8,286046999.8,N
1529475655.6,286047000.0,N
1529475675.5,286046999.9,N
1529475695.3,286046999.9,N
1529475715.2,286046999.9,N
1529475735.9,286047000.6,N
1529475755.7,286047000.0,N
1529475775.6,286047001.2,N
1529475795.4,286047000.8,N
1529475815.2,286046998.2,N
1529475835.1,286047002.7,N
1529475836.0,286047002.7,N
1529475855.8,286046999.7,N
1529475875.7,286047001.5,N
1529475895.5,286046998.2,N
1529475915.3,286047000.1,N
1529475935.2,286047002.7,N
1529475955.0,286047000.4,N
1529475955.9,286047000.4,N
1529475975.8,286046998.3,N
1529475995.6,286047000.5,N
1529476015.4,286047001.1,N
1529476035.3,286047001.2,N
1529476055.1,286046998.3,N
1529476075.8,286047000.8,N
1529476095.7,286046999.0,N
1529476115.5,286046998.3,N
1529476135.4,286047002.8,N
1529476155.2,286047000.5,N
1529476175.0,286046999.8,N
1529476175.9,286046999.8,N
1529476195.8,286047002.6,N
1529476215.6,286046999.7,N
1529476235.4,286047002.8,N
1529476255.3,286047002.8,N
1529476275.1,286046999.7,N
1529476295.8,286046999.8,N
1529476315.7,286047000.6,N
1529476335.5,286047002.4,N
1529476355.4,286047002.6,N
1529476375.2,286047000.0,N
1529476395.0,286047000.1,N
1529476395.9,286047000.1,N
1529476415.8,286046998.3,N
1529476435.6,286046998.2,N
1529476455.4,286047001.1,N
1529476475.3,286047001.2,N
1529476495.1,286046998.1,N
1529476515.9,286047001.2,N
1529476535.7,286046999.9,N
1529476555.5,286047000.9,N
1529476575.4,286047000.2,N
1529476595.2,286047000.3,N
1529476615.0,286047001.1,N
1529476616.0,286047001.1,N
1529476635.8,286047000.3,N
1529476655.6,286047001.1,N
1529476675.5,286046998.5,N
1529476695.3,286046998.5,N
1529476715.5,286047000.8,N
1529476735.3,286046998.5,N
1529476755.1,286047001.2,N
1529476775.9,286046998.5,N
1529476795.7,286047001.1,N
1529476815.6,286047000.4,N
1529476835.9,286047000.5,N
1529476855.7,286047001.0,N
1529476875.5,286047010.2,Y
1529476895.4,286047010.7,P
1529476915.2,286047006.4,N
1529476935.1,286047003.3,N
1529476936.0,286047003.3,N
1529476955.8,286047001.4,N
1529476975.6,286047003.9,N
1529476995.5,286047002.2,N
1529477015.3,286047000.2,N
1529477035.1,286047002.8,N
1529477055.9,286047002.4,N
1529477075.2,286047002.8,N
1529477095.0,286047001.9,N
1529477095.9,286047001.9,N
1529477115.8,286047001.8,N
1529477135.6,286047001.9,N
1529477155.4,286047002.7,N
1529477175.3,286047000.9,N
1529477195.1,286047002.4,N
1529477215.8,286047000.2,N
1529477235.7,286047001.2,N
1529477255.5,286047001.1,N
1529477275.3,286047002.7,N
1529477295.2,286047002.8,N
1529477315.0,286046998.9,N
1529477315.9,286046998.9,N
1529477335.8,286046998.9,N
1529477355.6,286047002.1,N
1529477375.4,286047001.3,N
1529477395.3,286046999.8,N
1529477415.1,286047000.8,N
1529477435.8,286046998.2,N
1529477455.7,286046996.6,N
1529477475.5,286046998.8,N
1529477495.4,286046999.3,N
1529477515.2,286046999.2,N
1529477535.0,286046999.1,N
1529477535.9,286046999.1,N
1529477555.8,286046998.3,N
1529477575.6,286046999.4,N
1529477595.5,286046996.8,N
1529477615.3,286046996.7,N
1529477635.1,286046996.5,N
1529477655.9,286046999.1,N
1529477675.7,286046999.0,N
1529477695.5,286046999.5,N
1529477715.4,286046997.1,N
1529477735.2,286046999.3,N
1529477755.1,286046999.0,N
1529477756.0,286046999.0,N
1529477775.8,286046999.0,N
1529477795.6,286046999.2,N
1529477815.5,286046999.2,N
1529477835.3,286046996.8,N
1529477855.2,286046996.8,N
1529477875.9,286046996.7,N
1529477895.7,286046997.6,N
1529477915.6,286046997.7,N
1529477935.4,286046996.8,N
1529477955.3,286046997.1,N
1529477975.1,286046995.5,Y
1529477976.0,286046995.5,P
1529477995.8,286046997.7,N
